{"data":{"norad_id":58264,"epoch":"2026-05-25T04:25:12.095328Z","epoch_age_seconds":55042,"freshness":"FRESH","line1":"1 58264U 23174J   26145.18416777  .00004536  00000+0  17334-3 0  9999","line2":"2 58264  97.3906 222.2432 0008684 291.6259  68.4054 15.27093853141240","mean_motion":15.27093853,"eccentricity":0.0008684,"inclination_deg":97.3906,"raan_deg":222.2432,"arg_perigee_deg":291.6259,"mean_anomaly_deg":68.4054,"bstar":0.00017334,"rev_number":14124,"period_min":94.296758327663,"perigee_km":478.54566274647,"apogee_km":490.4646996868,"semimajor_km":6862.6421812166,"source":"CELESTRAK","updated_at":"2026-05-25T13:38:00.640646Z"}}